Time,TemperatureF,DewpointF,PressureIn,WindDirection,WindDirectionDegrees,WindSpeedMPH,WindSpeedGustMPH,Humidity,HourlyPrecipIn,Conditions,Clouds,dailyrainin,SoftwareType,DateUTC
2013-01-03 00:01:00,63.0,62.0,29.99,North,0,0.0,0.0,98,0.00,,,0.00,Meteo,2013-01-03 05:01:00,
2013-01-03 00:02:00,63.0,62.0,29.99,North,0,0.0,0.0,98,0.00,,,0.00,Meteo,2013-01-03 05:02:00,
2013-01-03 00:04:00,63.0,62.0,29.99,North,0,0.0,0.0,98,0.00,,,0.00,Meteo,2013-01-03 05:04:00,
2013-01-03 00:07:00,63.0,62.0,29.99,North,0,0.0,0.0,98,0.00,,,0.00,Meteo,2013-01-03 05:07:00,
2013-01-03 00:12:00,63.0,62.0,29.99,North,0,0.0,0.0,98,0.00,,,0.00,Meteo,2013-01-03 05:12:00,
2013-01-03 00:17:00,63.0,62.0,29.99,North,0,0.0,0.0,98,0.00,,,0.00,Meteo,2013-01-03 05:17:00,
2013-01-03 00:22:00,63.0,62.0,29.99,North,0,0.0,0.0,98,0.00,,,0.00,Meteo,2013-01-03 05:22:00,
2013-01-03 00:27:00,63.0,62.0,29.99,North,0,0.0,0.0,98,0.00,,,0.00,Meteo,2013-01-03 05:27:00,
2013-01-03 00:32:00,62.0,61.0,29.98,North,0,0.0,0.0,98,0.00,,,0.00,Meteo,2013-01-03 05:32:00,
2013-01-03 00:37:00,62.0,61.0,29.98,North,0,0.0,0.0,98,0.00,,,0.00,Meteo,2013-01-03 05:37:00,
2013-01-03 00:42:00,62.0,61.0,29.98,North,0,0.0,0.0,98,0.00,,,0.00,Meteo,2013-01-03 05:42:00,
2013-01-03 00:47:00,62.0,61.0,29.98,North,0,0.0,0.0,98,0.00,,,0.00,Meteo,2013-01-03 05:47:00,
2013-01-03 00:52:00,62.0,61.0,29.98,North,0,0.0,0.0,98,0.00,,,0.00,Meteo,2013-01-03 05:52:00,
2013-01-03 00:57:00,62.0,61.0,29.98,North,0,0.0,0.0,98,0.00,,,0.00,Meteo,2013-01-03 05:57:00,
2013-01-03 01:02:00,62.0,61.0,29.98,North,0,0.0,0.0,98,0.00,,,0.00,Meteo,2013-01-03 06:02:00,
2013-01-03 01:07:00,62.0,61.0,29.98,North,0,0.0,0.0,98,0.00,,,0.00,Meteo,2013-01-03 06:07:00,
2013-01-03 01:12:00,62.0,61.0,29.98,North,0,0.0,0.0,98,0.00,,,0.00,Meteo,2013-01-03 06:12:00,
2013-01-03 01:17:00,62.0,61.0,29.98,North,0,0.0,0.0,98,0.00,,,0.00,Meteo,2013-01-03 06:17:00,
2013-01-03 01:22:00,61.0,60.0,29.98,North,0,0.0,0.0,98,0.00,,,0.00,Meteo,2013-01-03 06:22:00,
2013-01-03 01:27:00,61.0,60.0,29.98,North,0,0.0,0.0,98,0.00,,,0.00,Meteo,2013-01-03 06:27:00,
2013-01-03 01:32:00,61.0,60.0,29.98,North,0,0.0,0.0,98,0.00,,,0.00,Meteo,2013-01-03 06:32:00,
2013-01-03 01:37:00,61.0,60.0,29.98,North,0,0.0,0.0,98,0.00,,,0.00,Meteo,2013-01-03 06:37:00,
2013-01-03 01:42:00,61.0,60.0,29.98,North,0,0.0,0.0,98,0.00,,,0.00,Meteo,2013-01-03 06:42:00,
2013-01-03 01:47:00,60.0,59.0,29.98,North,0,0.0,0.0,98,0.00,,,0.00,Meteo,2013-01-03 06:47:00,
2013-01-03 01:52:00,60.0,59.0,29.98,North,0,0.0,0.0,98,0.00,,,0.00,Meteo,2013-01-03 06:52:00,
2013-01-03 01:57:00,60.0,59.0,29.98,North,0,0.0,0.0,98,0.00,,,0.00,Meteo,2013-01-03 06:57:00,
2013-01-03 02:02:00,60.0,59.0,29.98,North,0,0.0,0.0,98,0.00,,,0.00,Meteo,2013-01-03 07:02:00,
2013-01-03 02:07:00,60.0,59.0,29.98,North,0,0.0,0.0,98,0.00,,,0.00,Meteo,2013-01-03 07:07:00,
2013-01-03 02:12:00,60.0,59.0,29.98,North,0,0.0,0.0,98,0.00,,,0.00,Meteo,2013-01-03 07:12:00,
2013-01-03 02:17:00,60.0,59.0,29.98,North,0,0.0,0.0,98,0.00,,,0.00,Meteo,2013-01-03 07:17:00,
2013-01-03 02:22:00,60.0,59.0,29.98,North,0,0.0,0.0,98,0.00,,,0.00,Meteo,2013-01-03 07:22:00,
2013-01-03 02:27:00,60.0,59.0,29.98,North,0,0.0,0.0,98,0.00,,,0.00,Meteo,2013-01-03 07:27:00,
2013-01-03 02:32:00,60.0,59.0,29.98,North,0,0.0,0.0,98,0.00,,,0.00,Meteo,2013-01-03 07:32:00,
2013-01-03 02:37:00,60.0,59.0,29.98,North,0,0.0,0.0,98,0.00,,,0.00,Meteo,2013-01-03 07:37:00,
2013-01-03 02:42:00,60.0,59.0,29.98,North,0,0.0,0.0,98,0.00,,,0.00,Meteo,2013-01-03 07:42:00,
2013-01-03 02:47:00,60.0,59.0,29.98,North,0,0.0,0.0,98,0.00,,,0.00,Meteo,2013-01-03 07:47:00,
2013-01-03 02:52:00,61.0,60.0,29.98,North,0,0.0,0.0,98,0.00,,,0.00,Meteo,2013-01-03 07:52:00,
2013-01-03 02:57:00,61.0,60.0,29.98,North,0,0.0,0.0,98,0.00,,,0.00,Meteo,2013-01-03 07:57:00,
2013-01-03 03:03:00,61.0,60.0,29.98,North,0,0.0,0.0,98,0.00,,,0.00,Meteo,2013-01-03 08:03:00,
2013-01-03 03:09:00,61.0,60.0,29.98,North,0,0.0,0.0,98,0.00,,,0.00,Meteo,2013-01-03 08:09:00,
2013-01-03 03:14:00,61.0,60.0,29.98,North,0,0.0,0.0,98,0.00,,,0.00,Meteo,2013-01-03 08:14:00,
2013-01-03 03:19:00,61.0,60.0,29.98,North,0,0.0,0.0,98,0.00,,,0.00,Meteo,2013-01-03 08:19:00,
2013-01-03 03:24:00,61.0,60.0,29.98,North,0,0.0,0.0,98,0.00,,,0.00,Meteo,2013-01-03 08:24:00,
2013-01-03 03:29:00,61.0,60.0,29.98,North,0,0.0,0.0,98,0.00,,,0.00,Meteo,2013-01-03 08:29:00,
2013-01-03 03:34:00,61.0,60.0,29.98,North,0,0.0,0.0,98,0.00,,,0.00,Meteo,2013-01-03 08:34:00,
2013-01-03 03:40:00,61.0,60.0,29.98,North,0,0.0,0.0,98,0.00,,,0.00,Meteo,2013-01-03 08:40:00,
2013-01-03 03:45:00,60.0,59.0,29.97,North,0,0.0,0.0,98,0.00,,,0.00,Meteo,2013-01-03 08:45:00,
2013-01-03 03:51:00,60.0,59.0,29.97,WNW,291,0.0,1.0,98,0.00,,,0.00,Meteo,2013-01-03 08:51:00,
2013-01-03 03:56:00,60.0,59.0,29.97,North,0,0.0,0.0,98,0.00,,,0.00,Meteo,2013-01-03 08:56:00,
2013-01-03 04:01:00,60.0,59.0,29.97,North,0,0.0,0.0,98,0.00,,,0.00,Meteo,2013-01-03 09:01:00,
2013-01-03 04:07:00,60.0,59.0,29.97,North,0,0.0,0.0,98,0.00,,,0.00,Meteo,2013-01-03 09:07:00,
2013-01-03 04:12:00,60.0,59.0,29.97,North,0,0.0,0.0,98,0.00,,,0.00,Meteo,2013-01-03 09:12:00,
2013-01-03 04:17:00,60.0,59.0,29.97,North,0,0.0,0.0,98,0.00,,,0.00,Meteo,2013-01-03 09:17:00,
2013-01-03 04:23:00,60.0,59.0,29.97,North,0,0.0,0.0,98,0.00,,,0.00,Meteo,2013-01-03 09:23:00,
2013-01-03 04:29:00,60.0,59.0,29.97,North,0,0.0,0.0,98,0.00,,,0.00,Meteo,2013-01-03 09:29:00,
2013-01-03 04:35:00,59.0,58.0,29.97,North,0,0.0,0.0,98,0.00,,,0.00,Meteo,2013-01-03 09:35:00,
2013-01-03 04:40:00,59.0,58.0,29.97,North,0,0.0,0.0,98,0.00,,,0.00,Meteo,2013-01-03 09:40:00,
2013-01-03 04:46:00,59.0,58.0,29.97,North,0,0.0,0.0,98,0.00,,,0.00,Meteo,2013-01-03 09:46:00,
2013-01-03 04:51:00,59.0,58.0,29.97,North,0,0.0,0.0,98,0.00,,,0.00,Meteo,2013-01-03 09:51:00,
2013-01-03 04:56:00,59.0,58.0,29.97,WNW,291,2.0,2.0,98,0.00,,,0.00,Meteo,2013-01-03 09:56:00,
2013-01-03 05:01:00,59.0,58.0,29.97,North,0,0.0,0.0,98,0.00,,,0.00,Meteo,2013-01-03 10:01:00,
2013-01-03 05:06:00,60.0,59.0,29.97,North,0,0.0,0.0,98,0.00,,,0.00,Meteo,2013-01-03 10:06:00,
2013-01-03 05:11:00,60.0,59.0,29.97,WNW,292,0.0,1.0,98,0.00,,,0.00,Meteo,2013-01-03 10:11:00,
2013-01-03 05:17:00,60.0,59.0,29.97,North,0,0.0,0.0,98,0.00,,,0.00,Meteo,2013-01-03 10:17:00,
2013-01-03 05:22:00,60.0,59.0,29.97,WNW,291,1.0,1.0,98,0.00,,,0.00,Meteo,2013-01-03 10:22:00,
2013-01-03 05:28:00,60.0,59.0,29.97,WNW,291,0.0,2.0,98,0.00,,,0.00,Meteo,2013-01-03 10:28:00,
2013-01-03 05:33:00,61.0,60.0,29.98,North,0,0.0,0.0,98,0.00,,,0.00,Meteo,2013-01-03 10:33:00,
2013-01-03 05:38:00,62.0,61.0,29.98,North,0,0.0,0.0,98,0.00,,,0.00,Meteo,2013-01-03 10:38:00,
2013-01-03 05:43:00,62.0,61.0,29.98,WNW,291,1.0,2.0,98,0.00,,,0.00,Meteo,2013-01-03 10:43:00,
2013-01-03 05:48:00,62.0,61.0,29.98,WNW,291,1.0,2.0,98,0.00,,,0.00,Meteo,2013-01-03 10:48:00,
2013-01-03 05:53:00,62.0,61.0,29.98,North,0,0.0,0.0,98,0.00,,,0.00,Meteo,2013-01-03 10:53:00,
2013-01-03 05:58:00,62.0,61.0,29.98,North,0,0.0,0.0,98,0.00,,,0.00,Meteo,2013-01-03 10:58:00,
2013-01-03 06:03:00,62.0,61.0,29.99,North,0,0.0,0.0,98,0.00,,,0.00,Meteo,2013-01-03 11:03:00,
2013-01-03 06:08:00,62.0,61.0,29.99,North,0,0.0,0.0,98,0.00,,,0.00,Meteo,2013-01-03 11:08:00,
2013-01-03 06:13:00,62.0,61.0,29.99,North,0,0.0,0.0,98,0.00,,,0.00,Meteo,2013-01-03 11:13:00,
2013-01-03 06:18:00,63.0,62.0,29.99,North,0,0.0,0.0,98,0.00,,,0.00,Meteo,2013-01-03 11:18:00,
2013-01-03 06:23:00,63.0,62.0,29.99,WNW,291,1.0,3.0,98,0.00,,,0.00,Meteo,2013-01-03 11:23:00,
2013-01-03 06:28:00,63.0,62.0,29.99,WNW,291,1.0,2.0,98,0.00,,,0.00,Meteo,2013-01-03 11:28:00,
2013-01-03 06:33:00,63.0,62.0,30.00,NW,317,2.0,3.0,98,0.00,,,0.00,Meteo,2013-01-03 11:33:00,
2013-01-03 06:38:00,63.0,62.0,30.00,NNW,328,2.0,5.0,98,0.00,,,0.00,Meteo,2013-01-03 11:38:00,
2013-01-03 06:43:00,64.0,63.0,30.00,NNW,345,3.0,7.0,98,0.00,,,0.00,Meteo,2013-01-03 11:43:00,
2013-01-03 06:49:00,64.0,63.0,30.01,NNW,346,4.0,6.0,98,0.00,,,0.00,Meteo,2013-01-03 11:49:00,
2013-01-03 06:54:00,64.0,63.0,30.01,NNW,337,1.0,3.0,98,0.00,,,0.00,Meteo,2013-01-03 11:54:00,
2013-01-03 06:59:00,64.0,63.0,30.01,NNW,345,3.0,5.0,98,0.00,,,0.00,Meteo,2013-01-03 11:59:00,
2013-01-03 07:05:00,64.0,63.0,30.01,NNW,346,0.0,1.0,98,0.00,,,0.00,Meteo,2013-01-03 12:05:00,
2013-01-03 07:10:00,64.0,63.0,30.01,NNW,346,3.0,5.0,98,0.00,,,0.00,Meteo,2013-01-03 12:10:00,
2013-01-03 07:15:00,64.0,63.0,30.01,NNW,346,1.0,2.0,98,0.00,,,0.00,Meteo,2013-01-03 12:15:00,
2013-01-03 07:20:00,64.0,63.0,30.01,North,0,0.0,0.0,98,0.00,,,0.00,Meteo,2013-01-03 12:20:00,
2013-01-03 07:25:00,64.0,63.0,30.01,NNW,345,0.0,2.0,98,0.00,,,0.00,Meteo,2013-01-03 12:25:00,
2013-01-03 07:30:00,64.0,63.0,30.01,North,0,0.0,0.0,98,0.00,,,0.00,Meteo,2013-01-03 12:30:00,
2013-01-03 07:36:00,64.0,63.0,30.01,North,0,0.0,0.0,98,0.00,,,0.00,Meteo,2013-01-03 12:36:00,
2013-01-03 07:41:00,64.0,63.0,30.01,NNW,345,1.0,2.0,98,0.00,,,0.00,Meteo,2013-01-03 12:41:00,
2013-01-03 07:46:00,64.0,63.0,30.01,NNW,346,0.0,1.0,98,0.00,,,0.00,Meteo,2013-01-03 12:46:00,
2013-01-03 07:51:00,64.0,63.0,30.01,North,0,0.0,0.0,98,0.00,,,0.00,Meteo,2013-01-03 12:51:00,
2013-01-03 07:56:00,64.0,63.0,30.01,North,0,0.0,0.0,98,0.00,,,0.00,Meteo,2013-01-03 12:56:00,
2013-01-03 08:01:00,64.0,63.0,30.02,NNW,346,1.0,2.0,98,0.00,,,0.00,Meteo,2013-01-03 13:01:00,
2013-01-03 08:06:00,64.0,63.0,30.02,NNW,346,1.0,2.0,98,0.00,,,0.00,Meteo,2013-01-03 13:06:00,
2013-01-03 08:11:00,64.0,63.0,30.02,NNW,346,1.0,2.0,98,0.00,,,0.00,Meteo,2013-01-03 13:11:00,
2013-01-03 08:16:00,64.0,63.0,30.02,NNW,346,0.0,1.0,98,0.00,,,0.00,Meteo,2013-01-03 13:16:00,
2013-01-03 08:21:00,64.0,63.0,30.02,NNW,346,2.0,2.0,98,0.00,,,0.00,Meteo,2013-01-03 13:21:00,
2013-01-03 08:26:00,64.0,63.0,30.02,North,0,0.0,0.0,98,0.00,,,0.00,Meteo,2013-01-03 13:26:00,
2013-01-03 08:31:00,64.0,63.0,30.03,NNW,346,2.0,2.0,98,0.00,,,0.00,Meteo,2013-01-03 13:31:00,
2013-01-03 08:36:00,64.0,63.0,30.03,NNW,346,2.0,2.0,98,0.00,,,0.00,Meteo,2013-01-03 13:36:00,
2013-01-03 08:41:00,64.0,63.0,30.03,NNW,346,1.0,2.0,98,0.00,,,0.00,Meteo,2013-01-03 13:41:00,
2013-01-03 08:46:00,64.0,63.0,30.04,NNW,345,1.0,2.0,98,0.00,,,0.00,Meteo,2013-01-03 13:46:00,
2013-01-03 08:51:00,65.0,64.0,30.04,NNW,345,0.0,1.0,98,0.00,,,0.00,Meteo,2013-01-03 13:51:00,
2013-01-03 08:56:00,65.0,64.0,30.04,NNW,346,0.0,1.0,98,0.00,,,0.00,Meteo,2013-01-03 13:56:00,
2013-01-03 09:01:00,65.0,64.0,30.04,NNW,346,1.0,2.0,98,0.00,,,0.00,Meteo,2013-01-03 14:01:00,
2013-01-03 09:06:00,65.0,64.0,30.04,NNW,345,2.0,3.0,98,0.00,,,0.00,Meteo,2013-01-03 14:06:00,
2013-01-03 09:11:00,65.0,64.0,30.04,NNW,345,2.0,2.0,98,0.00,,,0.00,Meteo,2013-01-03 14:11:00,
2013-01-03 09:16:00,65.0,64.0,30.04,North,0,0.0,0.0,98,0.00,,,0.00,Meteo,2013-01-03 14:16:00,
2013-01-03 09:21:00,65.0,64.0,30.04,North,0,0.0,0.0,98,0.00,,,0.00,Meteo,2013-01-03 14:21:00,
2013-01-03 09:26:00,65.0,64.0,30.04,North,0,0.0,0.0,98,0.00,,,0.00,Meteo,2013-01-03 14:26:00,
2013-01-03 09:31:00,65.0,64.0,30.04,NNW,346,1.0,2.0,98,0.00,,,0.00,Meteo,2013-01-03 14:31:00,
2013-01-03 09:36:00,65.0,64.0,30.04,North,0,0.0,0.0,98,0.00,,,0.00,Meteo,2013-01-03 14:36:00,
2013-01-03 09:41:00,65.0,64.0,30.04,North,0,0.0,0.0,98,0.00,,,0.00,Meteo,2013-01-03 14:41:00,
2013-01-03 09:46:00,65.0,64.0,30.04,North,0,0.0,0.0,98,0.00,,,0.00,Meteo,2013-01-03 14:46:00,
2013-01-03 09:51:00,65.0,64.0,30.04,North,0,0.0,0.0,98,0.00,,,0.00,Meteo,2013-01-03 14:51:00,
2013-01-03 09:56:00,65.0,64.0,30.04,NNW,346,0.0,2.0,98,0.00,,,0.00,Meteo,2013-01-03 14:56:00,
2013-01-03 10:01:00,65.0,64.0,30.04,NNW,345,0.0,2.0,98,0.00,,,0.00,Meteo,2013-01-03 15:01:00,
2013-01-03 10:06:00,65.0,64.0,30.04,NNW,346,0.0,1.0,98,0.00,,,0.00,Meteo,2013-01-03 15:06:00,
2013-01-03 10:11:00,65.0,64.0,30.04,NNW,346,0.0,2.0,98,0.00,,,0.00,Meteo,2013-01-03 15:11:00,
2013-01-03 10:16:00,65.0,64.0,30.05,NNW,346,0.0,1.0,98,0.00,,,0.00,Meteo,2013-01-03 15:16:00,
2013-01-03 10:21:00,65.0,64.0,30.05,NNW,346,0.0,1.0,98,0.00,,,0.00,Meteo,2013-01-03 15:21:00,
2013-01-03 10:26:00,66.0,65.0,30.05,NNW,346,2.0,3.0,98,0.00,,,0.00,Meteo,2013-01-03 15:26:00,
2013-01-03 10:31:00,66.0,65.0,30.05,NNW,346,1.0,1.0,98,0.00,,,0.00,Meteo,2013-01-03 15:31:00,
2013-01-03 10:37:00,66.0,65.0,30.05,NNW,346,0.0,1.0,98,0.00,,,0.00,Meteo,2013-01-03 15:37:00,
2013-01-03 10:42:00,66.0,65.0,30.05,NNW,346,1.0,2.0,98,0.00,,,0.00,Meteo,2013-01-03 15:42:00,
2013-01-03 10:48:00,66.0,65.0,30.05,North,0,0.0,0.0,98,0.00,,,0.00,Meteo,2013-01-03 15:48:00,
2013-01-03 10:54:00,67.0,66.0,30.05,North,0,0.0,0.0,98,0.00,,,0.00,Meteo,2013-01-03 15:54:00,
2013-01-03 10:59:00,67.0,66.0,30.05,NNW,346,1.0,2.0,98,0.00,,,0.00,Meteo,2013-01-03 15:59:00,
2013-01-03 11:05:00,68.0,67.0,30.05,NNW,346,1.0,2.0,97,0.00,,,0.00,Meteo,2013-01-03 16:05:00,
2013-01-03 11:10:00,68.0,67.0,30.05,North,0,0.0,0.0,96,0.00,,,0.00,Meteo,2013-01-03 16:10:00,
2013-01-03 11:15:00,68.0,66.0,30.04,West,267,2.0,3.0,94,0.00,,,0.00,Meteo,2013-01-03 16:15:00,
2013-01-03 11:20:00,68.0,66.0,30.04,West,267,0.0,1.0,93,0.00,,,0.00,Meteo,2013-01-03 16:20:00,
2013-01-03 11:25:00,68.0,65.0,30.04,West,267,2.0,3.0,91,0.00,,,0.00,Meteo,2013-01-03 16:25:00,
2013-01-03 11:30:00,69.0,66.0,30.04,North,0,0.0,0.0,89,0.00,,,0.00,Meteo,2013-01-03 16:30:00,
2013-01-03 11:35:00,69.0,65.0,30.04,West,267,2.0,3.0,88,0.00,,,0.00,Meteo,2013-01-03 16:35:00,
2013-01-03 11:40:00,70.0,66.0,30.04,West,268,0.0,1.0,86,0.00,,,0.00,Meteo,2013-01-03 16:40:00,
2013-01-03 11:45:00,70.0,65.0,30.04,North,0,0.0,0.0,84,0.00,,,0.00,Meteo,2013-01-03 16:45:00,
2013-01-03 11:50:00,71.0,65.0,30.04,SW,236,2.0,4.0,82,0.00,,,0.00,Meteo,2013-01-03 16:50:00,
2013-01-03 11:55:00,72.0,65.0,30.04,WSW,237,1.0,2.0,79,0.00,,,0.00,Meteo,2013-01-03 16:55:00,
2013-01-03 12:00:00,73.0,66.0,30.04,North,359,2.0,5.0,78,0.00,,,0.00,Meteo,2013-01-03 17:00:00,
2013-01-03 12:05:00,74.0,66.0,30.03,North,352,2.0,3.0,77,0.00,,,0.00,Meteo,2013-01-03 17:05:00,
2013-01-03 12:11:00,74.0,66.0,30.03,North,354,2.0,3.0,77,0.00,,,0.00,Meteo,2013-01-03 17:11:00,
2013-01-03 12:16:00,74.0,66.0,30.02,North,0,0.0,0.0,77,0.00,,,0.00,Meteo,2013-01-03 17:16:00,
2013-01-03 12:21:00,74.0,66.0,30.02,North,354,1.0,2.0,77,0.00,,,0.00,Meteo,2013-01-03 17:21:00,
2013-01-03 12:26:00,74.0,66.0,30.02,North,354,1.0,2.0,76,0.00,,,0.00,Meteo,2013-01-03 17:26:00,
2013-01-03 12:31:00,74.0,66.0,30.01,North,354,0.0,1.0,77,0.00,,,0.00,Meteo,2013-01-03 17:31:00,
2013-01-03 12:36:00,73.0,65.0,30.01,North,0,0.0,0.0,77,0.00,,,0.00,Meteo,2013-01-03 17:36:00,
2013-01-03 12:41:00,73.0,66.0,30.01,North,0,0.0,0.0,78,0.00,,,0.00,Meteo,2013-01-03 17:41:00,
2013-01-03 12:46:00,73.0,66.0,30.00,North,354,2.0,2.0,79,0.00,,,0.00,Meteo,2013-01-03 17:46:00,
2013-01-03 12:51:00,72.0,65.0,30.00,North,354,2.0,3.0,80,0.00,,,0.00,Meteo,2013-01-03 17:51:00,
2013-01-03 12:56:00,72.0,66.0,30.00,North,354,5.0,6.0,81,0.00,,,0.00,Meteo,2013-01-03 17:56:00,
2013-01-03 13:01:00,72.0,66.0,30.00,North,353,5.0,6.0,82,0.00,,,0.00,Meteo,2013-01-03 18:01:00,
2013-01-03 13:08:00,71.0,66.0,30.00,North,0,0.0,0.0,83,0.00,,,0.00,Meteo,2013-01-03 18:08:00,
2013-01-03 13:13:00,71.0,65.0,30.00,North,356,0.0,1.0,82,0.00,,,0.00,Meteo,2013-01-03 18:13:00,
2013-01-03 13:18:00,71.0,65.0,29.99,North,355,1.0,2.0,82,0.00,,,0.00,Meteo,2013-01-03 18:18:00,
2013-01-03 13:23:00,72.0,66.0,29.99,North,353,1.0,3.0,82,0.00,,,0.00,Meteo,2013-01-03 18:23:00,
2013-01-03 13:28:00,72.0,66.0,29.99,North,356,2.0,5.0,81,0.00,,,0.00,Meteo,2013-01-03 18:28:00,
2013-01-03 13:33:00,71.0,65.0,29.99,North,357,2.0,7.0,81,0.00,,,0.00,Meteo,2013-01-03 18:33:00,
2013-01-03 13:38:00,71.0,65.0,29.99,North,357,3.0,5.0,82,0.00,,,0.00,Meteo,2013-01-03 18:38:00,
2013-01-03 13:43:00,71.0,65.0,29.99,North,357,1.0,3.0,82,0.00,,,0.00,Meteo,2013-01-03 18:43:00,
2013-01-03 13:48:00,72.0,67.0,29.98,East,79,2.0,3.0,83,0.00,,,0.00,Meteo,2013-01-03 18:48:00,
2013-01-03 13:53:00,72.0,65.0,29.98,North,359,3.0,6.0,80,0.00,,,0.00,Meteo,2013-01-03 18:53:00,
2013-01-03 13:58:00,72.0,65.0,29.98,North,353,2.0,6.0,80,0.00,,,0.00,Meteo,2013-01-03 18:58:00,
2013-01-03 14:03:00,72.0,65.0,29.99,North,356,3.0,4.0,80,0.00,,,0.00,Meteo,2013-01-03 19:03:00,
2013-01-03 14:08:00,72.0,65.0,29.99,North,354,1.0,2.0,80,0.00,,,0.00,Meteo,2013-01-03 19:08:00,
2013-01-03 14:13:00,72.0,65.0,29.99,North,354,2.0,3.0,80,0.00,,,0.00,Meteo,2013-01-03 19:13:00,
2013-01-03 14:18:00,73.0,66.0,29.98,North,355,1.0,2.0,79,0.00,,,0.00,Meteo,2013-01-03 19:18:00,
2013-01-03 14:34:00,72.0,65.0,29.99,NNE,19,2.0,7.0,80,0.00,,,0.00,Meteo,2013-01-03 19:34:00,
2013-01-03 14:46:00,71.0,65.0,29.99,North,359,2.0,6.0,82,0.00,,,0.00,Meteo,2013-01-03 19:46:00,
2013-01-03 14:54:00,71.0,65.0,29.99,North,4,1.0,2.0,81,0.00,,,0.00,Meteo,2013-01-03 19:54:00,
2013-01-03 15:00:00,71.0,65.0,29.99,North,357,0.0,1.0,81,0.00,,,0.00,Meteo,2013-01-03 20:00:00,
2013-01-03 15:05:00,71.0,65.0,29.99,North,360,3.0,7.0,81,0.00,,,0.00,Meteo,2013-01-03 20:05:00,
2013-01-03 15:10:00,71.0,65.0,29.99,NNE,23,2.0,3.0,81,0.00,,,0.00,Meteo,2013-01-03 20:10:00,
2013-01-03 15:15:00,71.0,65.0,30.00,North,357,2.0,3.0,82,0.00,,,0.00,Meteo,2013-01-03 20:15:00,
2013-01-03 15:20:00,71.0,65.0,30.00,NNE,20,3.0,5.0,82,0.00,,,0.00,Meteo,2013-01-03 20:20:00,
2013-01-03 15:25:00,71.0,65.0,30.00,NNE,15,3.0,5.0,82,0.00,,,0.00,Meteo,2013-01-03 20:25:00,
2013-01-03 15:30:00,71.0,65.0,30.00,NNE,32,1.0,3.0,82,0.00,,,0.00,Meteo,2013-01-03 20:30:00,
2013-01-03 15:35:00,71.0,65.0,30.00,North,8,3.0,7.0,82,0.00,,,0.00,Meteo,2013-01-03 20:35:00,
2013-01-03 15:40:00,71.0,65.0,30.00,ENE,64,0.0,1.0,82,0.00,,,0.00,Meteo,2013-01-03 20:40:00,
2013-01-03 15:45:00,71.0,66.0,30.00,North,360,1.0,2.0,83,0.00,,,0.00,Meteo,2013-01-03 20:45:00,
2013-01-03 15:50:00,71.0,66.0,30.00,North,360,0.0,3.0,83,0.00,,,0.00,Meteo,2013-01-03 20:50:00,
2013-01-03 15:55:00,71.0,66.0,30.00,North,357,0.0,2.0,83,0.00,,,0.00,Meteo,2013-01-03 20:55:00,
2013-01-03 16:01:00,70.0,65.0,30.01,North,5,2.0,5.0,83,0.00,,,0.00,Meteo,2013-01-03 21:01:00,
2013-01-03 16:06:00,70.0,65.0,30.01,North,356,2.0,5.0,83,0.00,,,0.00,Meteo,2013-01-03 21:06:00,
2013-01-03 16:11:00,70.0,65.0,30.01,NNE,25,0.0,1.0,84,0.00,,,0.00,Meteo,2013-01-03 21:11:00,
2013-01-03 16:16:00,70.0,65.0,30.01,NNE,19,2.0,3.0,84,0.00,,,0.00,Meteo,2013-01-03 21:16:00,
2013-01-03 16:21:00,70.0,65.0,30.01,NE,36,2.0,3.0,84,0.00,,,0.00,Meteo,2013-01-03 21:21:00,
2013-01-03 16:26:00,70.0,65.0,30.01,NE,35,0.0,2.0,84,0.00,,,0.00,Meteo,2013-01-03 21:26:00,
2013-01-03 16:31:00,69.0,64.0,30.02,North,0,0.0,0.0,84,0.00,,,0.00,Meteo,2013-01-03 21:31:00,
2013-01-03 16:36:00,69.0,64.0,30.02,NNE,19,5.0,7.0,85,0.00,,,0.00,Meteo,2013-01-03 21:36:00,
2013-01-03 16:41:00,69.0,64.0,30.02,NNE,31,3.0,7.0,84,0.00,,,0.00,Meteo,2013-01-03 21:41:00,
2013-01-03 16:46:00,68.0,64.0,30.04,North,360,4.0,6.0,86,0.00,,,0.00,Meteo,2013-01-03 21:46:00,
2013-01-03 16:52:00,67.0,63.0,30.04,NNE,31,3.0,6.0,87,0.00,,,0.00,Meteo,2013-01-03 21:52:00,
2013-01-03 16:57:00,67.0,63.0,30.04,North,6,3.0,11.0,87,0.00,,,0.00,Meteo,2013-01-03 21:57:00,
2013-01-03 17:02:00,66.0,62.0,30.03,NE,45,2.0,4.0,88,0.00,,,0.00,Meteo,2013-01-03 22:02:00,
2013-01-03 17:07:00,66.0,62.0,30.03,North,6,4.0,7.0,88,0.00,,,0.00,Meteo,2013-01-03 22:07:00,
2013-01-03 17:12:00,66.0,62.0,30.03,NNE,31,2.0,4.0,88,0.00,,,0.00,Meteo,2013-01-03 22:12:00,
2013-01-03 17:17:00,66.0,63.0,30.04,North,11,0.0,1.0,89,0.00,,,0.00,Meteo,2013-01-03 22:17:00,
2013-01-03 17:22:00,66.0,63.0,30.04,NNE,12,5.0,11.0,89,0.00,,,0.00,Meteo,2013-01-03 22:22:00,
2013-01-03 17:27:00,66.0,63.0,30.04,NNE,20,0.0,1.0,89,0.00,,,0.00,Meteo,2013-01-03 22:27:00,
2013-01-03 17:32:00,65.0,62.0,30.04,North,0,7.0,14.0,90,0.00,,,0.00,Meteo,2013-01-03 22:32:00,
2013-01-03 17:37:00,65.0,62.0,30.04,North,2,1.0,3.0,89,0.00,,,0.00,Meteo,2013-01-03 22:37:00,
2013-01-03 17:42:00,65.0,62.0,30.04,North,9,0.0,1.0,89,0.00,,,0.00,Meteo,2013-01-03 22:42:00,
2013-01-03 17:47:00,65.0,62.0,30.04,North,357,2.0,4.0,89,0.00,,,0.00,Meteo,2013-01-03 22:47:00,
2013-01-03 17:52:00,64.0,61.0,30.04,NNE,12,4.0,8.0,89,0.00,,,0.00,Meteo,2013-01-03 22:52:00,
2013-01-03 17:57:00,64.0,61.0,30.04,North,7,1.0,5.0,89,0.00,,,0.00,Meteo,2013-01-03 22:57:00,
2013-01-03 18:02:00,64.0,61.0,30.05,NE,51,2.0,3.0,89,0.00,,,0.00,Meteo,2013-01-03 23:02:00,
2013-01-03 18:07:00,63.0,59.0,30.05,North,359,7.0,16.0,88,0.00,,,0.00,Meteo,2013-01-03 23:07:00,
2013-01-03 18:12:00,63.0,60.0,30.05,NNE,21,3.0,7.0,89,0.00,,,0.00,Meteo,2013-01-03 23:12:00,
2013-01-03 18:17:00,63.0,60.0,30.06,NNE,33,1.0,4.0,89,0.00,,,0.00,Meteo,2013-01-03 23:17:00,
2013-01-03 18:22:00,62.0,59.0,30.06,NNE,22,2.0,3.0,89,0.00,,,0.00,Meteo,2013-01-03 23:22:00,
2013-01-03 18:27:00,62.0,59.0,30.06,North,6,4.0,11.0,89,0.00,,,0.00,Meteo,2013-01-03 23:27:00,
2013-01-03 18:32:00,62.0,58.0,30.06,NE,42,3.0,8.0,88,0.00,,,0.00,Meteo,2013-01-03 23:32:00,
2013-01-03 18:37:00,62.0,58.0,30.06,North,3,3.0,7.0,88,0.00,,,0.00,Meteo,2013-01-03 23:37:00,
2013-01-03 18:42:00,62.0,58.0,30.06,North,2,7.0,11.0,88,0.00,,,0.00,Meteo,2013-01-03 23:42:00,
2013-01-03 18:47:00,61.0,57.0,30.07,North,2,5.0,11.0,88,0.00,,,0.00,Meteo,2013-01-03 23:47:00,
2013-01-03 18:52:00,61.0,57.0,30.07,North,356,9.0,16.0,88,0.00,,,0.00,Meteo,2013-01-03 23:52:00,
2013-01-03 18:57:00,61.0,57.0,30.07,North,355,9.0,12.0,88,0.00,,,0.00,Meteo,2013-01-03 23:57:00,
2013-01-03 19:02:00,61.0,58.0,30.07,North,360,4.0,7.0,89,0.00,,,0.00,Meteo,2013-01-04 00:02:00,
2013-01-03 19:07:00,61.0,57.0,30.07,North,357,6.0,12.0,88,0.00,,,0.00,Meteo,2013-01-04 00:07:00,
2013-01-03 19:12:00,60.0,57.0,30.07,North,355,4.0,8.0,89,0.00,,,0.00,Meteo,2013-01-04 00:12:00,
2013-01-03 19:17:00,60.0,56.0,30.08,North,357,7.0,11.0,88,0.00,,,0.00,Meteo,2013-01-04 00:17:00,
2013-01-03 19:22:00,60.0,57.0,30.08,North,7,3.0,6.0,89,0.00,,,0.00,Meteo,2013-01-04 00:22:00,
2013-01-03 19:27:00,60.0,57.0,30.08,North,356,4.0,7.0,89,0.00,,,0.00,Meteo,2013-01-04 00:27:00,
2013-01-03 19:32:00,60.0,56.0,30.09,North,3,5.0,8.0,88,0.00,,,0.00,Meteo,2013-01-04 00:32:00,
2013-01-03 19:37:00,60.0,56.0,30.09,North,359,6.0,10.0,88,0.00,,,0.00,Meteo,2013-01-04 00:37:00,
2013-01-03 19:42:00,60.0,57.0,30.09,North,353,9.0,12.0,89,0.00,,,0.00,Meteo,2013-01-04 00:42:00,
2013-01-03 19:47:00,60.0,57.0,30.09,North,1,6.0,11.0,89,0.00,,,0.00,Meteo,2013-01-04 00:47:00,
2013-01-03 19:52:00,60.0,57.0,30.09,North,1,4.0,7.0,90,0.00,,,0.00,Meteo,2013-01-04 00:52:00,
2013-01-03 19:57:00,60.0,57.0,30.09,North,353,4.0,7.0,90,0.00,,,0.00,Meteo,2013-01-04 00:57:00,
2013-01-03 20:02:00,60.0,57.0,30.09,North,2,2.0,5.0,91,0.00,,,0.00,Meteo,2013-01-04 01:02:00,
2013-01-03 20:07:00,60.0,57.0,30.09,North,354,2.0,5.0,91,0.00,,,0.00,Meteo,2013-01-04 01:07:00,
2013-01-03 20:12:00,60.0,57.0,30.09,North,357,4.0,6.0,91,0.00,,,0.00,Meteo,2013-01-04 01:12:00,
2013-01-03 20:17:00,59.0,56.0,30.09,North,355,6.0,11.0,91,0.00,,,0.00,Meteo,2013-01-04 01:17:00,
2013-01-03 20:22:00,59.0,56.0,30.09,North,2,5.0,7.0,91,0.00,,,0.00,Meteo,2013-01-04 01:22:00,
2013-01-03 20:27:00,59.0,56.0,30.09,North,353,4.0,6.0,90,0.00,,,0.00,Meteo,2013-01-04 01:27:00,
2013-01-03 20:32:00,59.0,56.0,30.10,North,355,5.0,8.0,90,0.00,,,0.00,Meteo,2013-01-04 01:32:00,
2013-01-03 20:37:00,59.0,56.0,30.10,NNW,345,3.0,6.0,90,0.00,,,0.00,Meteo,2013-01-04 01:37:00,
2013-01-03 20:42:00,59.0,56.0,30.10,North,356,3.0,7.0,89,0.00,,,0.00,Meteo,2013-01-04 01:42:00,
2013-01-03 20:47:00,59.0,56.0,30.10,NNW,347,6.0,9.0,90,0.00,,,0.00,Meteo,2013-01-04 01:47:00,
2013-01-03 20:52:00,59.0,56.0,30.10,North,350,5.0,7.0,91,0.01,,,0.00,Meteo,2013-01-04 01:52:00,
2013-01-03 20:57:00,59.0,57.0,30.10,North,356,1.0,3.0,93,0.01,,,0.00,Meteo,2013-01-04 01:57:00,
2013-01-03 21:02:00,59.0,57.0,30.10,North,359,2.0,4.0,93,0.01,,,0.00,Meteo,2013-01-04 02:02:00,
2013-01-03 21:07:00,59.0,57.0,30.10,NNE,29,0.0,1.0,94,0.01,,,0.00,Meteo,2013-01-04 02:07:00,
2013-01-03 21:12:00,59.0,58.0,30.10,North,0,0.0,0.0,95,0.01,,,0.00,Meteo,2013-01-04 02:12:00,
2013-01-03 21:17:00,59.0,58.0,30.10,North,353,1.0,3.0,95,0.01,,,0.00,Meteo,2013-01-04 02:17:00,
2013-01-03 21:22:00,59.0,58.0,30.10,North,0,0.0,0.0,96,0.01,,,0.00,Meteo,2013-01-04 02:22:00,
2013-01-03 21:27:00,59.0,58.0,30.10,North,351,2.0,4.0,96,0.01,,,0.00,Meteo,2013-01-04 02:27:00,
2013-01-03 21:32:00,58.0,57.0,30.12,North,352,3.0,3.0,96,0.01,,,0.00,Meteo,2013-01-04 02:32:00,
2013-01-03 21:37:00,58.0,57.0,30.12,North,354,1.0,2.0,97,0.01,,,0.00,Meteo,2013-01-04 02:37:00,
2013-01-03 21:42:00,58.0,57.0,30.12,North,354,2.0,3.0,97,0.01,,,0.00,Meteo,2013-01-04 02:42:00,
2013-01-03 21:47:00,58.0,57.0,30.12,North,355,1.0,3.0,97,0.01,,,0.00,Meteo,2013-01-04 02:47:00,
2013-01-03 21:52:00,58.0,57.0,30.12,North,360,1.0,3.0,97,0.00,,,0.00,Meteo,2013-01-04 02:52:00,
2013-01-03 21:57:00,58.0,57.0,30.12,North,354,0.0,1.0,97,0.00,,,0.00,Meteo,2013-01-04 02:57:00,
2013-01-03 22:02:00,58.0,57.0,30.12,North,357,2.0,3.0,97,0.00,,,0.00,Meteo,2013-01-04 03:02:00,
2013-01-03 22:07:00,58.0,57.0,30.12,North,357,1.0,3.0,97,0.00,,,0.00,Meteo,2013-01-04 03:07:00,
2013-01-03 22:12:00,58.0,57.0,30.12,North,357,2.0,3.0,98,0.00,,,0.00,Meteo,2013-01-04 03:12:00,
2013-01-03 22:17:00,58.0,57.0,30.12,North,356,2.0,5.0,98,0.00,,,0.00,Meteo,2013-01-04 03:17:00,
2013-01-03 22:22:00,59.0,58.0,30.12,North,350,2.0,3.0,98,0.00,,,0.00,Meteo,2013-01-04 03:22:00,
2013-01-03 22:28:00,59.0,58.0,30.12,North,351,1.0,3.0,98,0.00,,,0.00,Meteo,2013-01-04 03:28:00,
2013-01-03 22:34:00,59.0,58.0,30.12,North,351,3.0,5.0,98,0.00,,,0.00,Meteo,2013-01-04 03:34:00,
2013-01-03 22:39:00,59.0,58.0,30.12,North,356,4.0,6.0,98,0.00,,,0.00,Meteo,2013-01-04 03:39:00,
2013-01-03 22:44:00,59.0,58.0,30.12,North,353,2.0,4.0,98,0.00,,,0.00,Meteo,2013-01-04 03:44:00,
2013-01-03 22:49:00,59.0,58.0,30.12,North,354,2.0,4.0,98,0.00,,,0.00,Meteo,2013-01-04 03:49:00,
2013-01-03 22:54:00,59.0,58.0,30.12,North,355,1.0,3.0,98,0.00,,,0.00,Meteo,2013-01-04 03:54:00,
2013-01-03 22:59:00,59.0,58.0,30.12,North,357,1.0,3.0,98,0.00,,,0.00,Meteo,2013-01-04 03:59:00,
2013-01-03 23:04:00,59.0,58.0,30.11,North,354,2.0,6.0,98,0.00,,,0.00,Meteo,2013-01-04 04:04:00,
2013-01-03 23:09:00,59.0,58.0,30.11,North,352,5.0,10.0,98,0.00,,,0.00,Meteo,2013-01-04 04:09:00,
2013-01-03 23:14:00,59.0,58.0,30.11,NNW,345,2.0,5.0,98,0.00,,,0.00,Meteo,2013-01-04 04:14:00,
2013-01-03 23:19:00,59.0,58.0,30.12,North,353,2.0,3.0,98,0.00,,,0.00,Meteo,2013-01-04 04:19:00,
2013-01-03 23:24:00,59.0,58.0,30.12,NNE,12,4.0,7.0,98,0.01,,,0.00,Meteo,2013-01-04 04:24:00,
2013-01-03 23:29:00,59.0,58.0,30.12,North,354,4.0,6.0,98,0.01,,,0.00,Meteo,2013-01-04 04:29:00,
2013-01-03 23:34:00,59.0,58.0,30.12,North,356,4.0,5.0,98,0.02,,,0.00,Meteo,2013-01-04 04:34:00,
2013-01-03 23:39:00,59.0,58.0,30.12,North,349,5.0,6.0,98,0.02,,,0.00,Meteo,2013-01-04 04:39:00,
2013-01-03 23:44:00,59.0,58.0,30.12,North,352,4.0,6.0,98,0.02,,,0.00,Meteo,2013-01-04 04:44:00,
2013-01-03 23:49:00,59.0,58.0,30.11,North,353,4.0,7.0,98,0.03,,,0.00,Meteo,2013-01-04 04:49:00,
2013-01-03 23:54:00,59.0,58.0,30.11,North,357,4.0,7.0,98,0.03,,,0.00,Meteo,2013-01-04 04:54:00,
2013-01-03 23:59:00,59.0,58.0,30.11,North,360,3.0,6.0,98,0.04,,,0.00,Meteo,2013-01-04 04:59:00,